User: anonymous   Login
Location: Dresden
(51.0300°N, 13.7800°E)
Time: 06:21:13
(UTC+01:00)
Language:

LES 1 - Orbit

View from above orbital plane
View from above orbital plane
View from above satellite
View from above satellite

Ground track
Ground track

The orbit data is extracted from the following two-line orbital elements,

1 01002U 65008C   25347.05501076 -.00000002  00000-0 -13608-2 0  9991
2 01002  32.1395 125.6425 0015792 319.3444  40.5874  9.88354972197779
Epoch (UTC): 13 December 2025 01:19:12
Eccentricity: 0.0015792
inclination: 32.1395°
perigee height: 2779 km
apogee height: 2808 km
right ascension of ascending node: 125.6425°
argument of perigee: 319.3444°
revolutions per day: 9.88354972
mean anomaly at epoch: 40.5874°
orbit number at epoch: 19777

The dashed part of the orbit path shows where the satellite is in the earth's shadow,  

DLR